Change the Weather History Date:

Monday, August 25, 2014

  Actual Average Record
Temperature  
Mean Temperature 69 °F 66 °F  
Max Temperature 77 °F 78 °F 94 °F (2013)
Min Temperature 61 °F 55 °F 40 °F (1945)
Degree Days  
Heating Degree Days 0 2  
Month to date heating degree days 0 28  
Since 1 June heating degree days 33 123  
Since 1 July heating degree days 7 45  
Cooling Degree Days 4 3  
Month to date cooling degree days 183 109  
Year to date cooling degree days 535 411  
Since 1 June cooling degree days 491 386  
Growing Degree Days 18 (Base 50)    
Moisture  
Dew Point 55 °F    
Average Humidity 68    
Maximum Humidity 93    
Minimum Humidity 43    
Precipitation  
Precipitation 0.00 in 0.13 in 3.42 in (1967)
Month to date precipitation 2.74 2.98  
Year to date precipitation 26.52 18.77  
Snow  
Snow 0.00 in 0.00 in 0.00 in ()
Month to date snowfall 0.0 0.0  
Since 1 June snowfall 0.0 0.0  
Since 1 July snowfall 0.0 0.0  
Snow Depth 0.00 in    
Sea Level Pressure  
Sea Level Pressure 29.96 in    
Wind  
Wind Speed 10 mph (West)    
Max Wind Speed 21 mph    
Max Gust Speed 25 mph    
Visibility 10 miles    
Events      
T = Trace of Precipitation, MM = Missing Value Source: NWS Daily Summary

Daily Weather History Graph

Daily Weather History Graph

Search for Another Location

Airport or City:

Trip Planner

Search our weather history database for the weather conditions in past years. The results will help you decide how hot, cold, wet, or windy it might be!

Date:

Astronomy

Aug. 25, 2014 Rise Set
Actual Time 6:29 AM CDT 8:06 PM CDT
Civil Twilight 5:57 AM CDT 8:37 PM CDT
Nautical Twilight 5:19 AM CDT 9:15 PM CDT
Astronomical Twilight 4:38 AM CDT 9:56 PM CDT
Moon 6:37 AM CDT (8/25) 7:53 PM CDT (8/25)
Length of Visible Light 14h 40m
Length of Day
13h 37m
New Moon, 0% of the Moon is Illuminated
Aug 25
New Moon
Sep 2
First Quarter
Sep 8
Full
Sep 15
Last Quarter
Sep 24
New

Hourly Weather History & Observations

Time (CDT) Temp. Dew Point Humidity Pressure Visibility Wind Dir Wind Speed Gust Speed Precip Events Conditions
12:53 AM 66.0 °F 62.1 °F 87% 29.87 in 10.0 mi SSE 3.5 mph - N/A   Clear
1:53 AM 64.9 °F 62.1 °F 90% 29.88 in 10.0 mi SE 5.8 mph - N/A   Clear
2:53 AM 64.0 °F 61.0 °F 90% 29.88 in 10.0 mi Calm Calm - N/A   Clear
3:53 AM 62.6 °F 60.8 °F 94% 29.86 in 10.0 mi Calm Calm - N/A   Clear
4:53 AM 62.1 °F 59.0 °F 90% 29.88 in 10.0 mi Calm Calm - N/A   Clear
5:53 AM 62.1 °F 59.0 °F 90% 29.89 in 10.0 mi SW 4.6 mph - N/A   Clear
6:53 AM 64.0 °F 60.1 °F 87% 29.91 in 10.0 mi WSW 6.9 mph - N/A   Clear
7:53 AM 66.0 °F 57.9 °F 75% 29.93 in 10.0 mi SW 6.9 mph - N/A   Clear
8:53 AM 68.0 °F 51.8 °F 56% 29.94 in 10.0 mi West 11.5 mph - N/A   Clear
9:53 AM 69.1 °F 50.0 °F 51% 29.97 in 10.0 mi West 12.7 mph - N/A   Clear
10:53 AM 69.1 °F 51.1 °F 53% 29.97 in 10.0 mi WSW 12.7 mph - N/A   Clear
11:53 AM 73.0 °F 50.0 °F 44% 29.99 in 10.0 mi WSW 16.1 mph - N/A   Clear
12:53 PM 72.0 °F 50.0 °F 46% 29.99 in 10.0 mi West 16.1 mph - N/A   Clear
1:53 PM 75.0 °F 53.1 °F 46% 29.99 in 10.0 mi SW 15.0 mph 20.7 mph N/A   Clear
2:53 PM 75.0 °F 52.0 °F 44% 29.97 in 10.0 mi WSW 15.0 mph 19.6 mph N/A   Clear
3:53 PM 75.9 °F 53.1 °F 45% 29.97 in 10.0 mi West 16.1 mph - N/A   Clear
4:53 PM 75.0 °F 54.0 °F 48% 29.97 in 10.0 mi West 13.8 mph - N/A   Scattered Clouds
5:53 PM 73.9 °F 54.0 °F 50% 30.00 in 10.0 mi West 11.5 mph - N/A   Mostly Cloudy
6:53 PM 72.0 °F 54.0 °F 53% 30.00 in 10.0 mi WNW 13.8 mph - N/A   Mostly Cloudy
7:53 PM 70.0 °F 53.1 °F 55% 30.03 in 10.0 mi West 10.4 mph - N/A   Overcast
8:53 PM 69.8 °F 53.6 °F 56% 30.03 in 10.0 mi WNW 10.4 mph - N/A   Overcast
9:53 PM 66.2 °F 53.6 °F 64% 30.04 in 10.0 mi WNW 11.5 mph - N/A   Overcast
10:53 PM 64.9 °F 53.1 °F 65% 30.08 in 10.0 mi WNW 8.1 mph - N/A   Overcast
11:53 PM 64.0 °F 50.0 °F 60% 30.09 in 10.0 mi NW 11.5 mph - N/A   Mostly Cloudy